Time,TemperatureF,DewpointF,PressureIn,WindDirection,WindDirectionDegrees,WindSpeedMPH,WindSpeedGustMPH,Humidity,HourlyPrecipIn,Conditions,Clouds,dailyrainin,SolarRadiationWatts/m^2,SoftwareType,DateUTC
2013-04-18 00:02:00,68.0,59.0,-100.00,South,190,4.0,10.0,72,0.00,,,0.00,0.000000,,2013-04-18 05:02:00,
2013-04-18 00:33:00,69.0,60.0,-100.00,SSW,201,5.0,10.0,74,0.00,,,0.00,0.000000,,2013-04-18 05:33:00,
2013-04-18 00:42:00,69.0,60.0,-100.00,SSW,201,5.0,10.0,74,0.00,,,0.00,0.000000,,2013-04-18 05:42:00,
2013-04-18 00:52:00,69.0,60.0,-100.00,SSW,201,5.0,10.0,74,0.00,,,0.00,0.000000,,2013-04-18 05:52:00,
2013-04-18 01:02:00,69.0,60.0,-100.00,SSW,201,5.0,10.0,74,0.00,,,0.00,0.000000,,2013-04-18 06:02:00,
2013-04-18 01:32:00,71.0,61.0,-100.00,SSW,209,6.0,14.0,70,0.00,,,0.00,0.000000,,2013-04-18 06:32:00,
2013-04-18 01:42:00,71.0,61.0,-100.00,SSW,209,6.0,14.0,70,0.00,,,0.00,0.000000,,2013-04-18 06:42:00,
2013-04-18 01:52:00,71.0,61.0,-100.00,SSW,209,6.0,14.0,70,0.00,,,0.00,0.000000,,2013-04-18 06:52:00,
2013-04-18 02:02:00,71.0,61.0,-100.00,SSW,209,6.0,14.0,70,0.00,,,0.00,0.000000,,2013-04-18 07:02:00,
2013-04-18 02:32:00,70.0,60.0,-100.00,SSW,196,5.0,15.0,70,0.00,,,0.00,0.000000,,2013-04-18 07:32:00,
2013-04-18 02:42:00,70.0,60.0,-100.00,SSW,196,5.0,15.0,70,0.00,,,0.00,0.000000,,2013-04-18 07:42:00,
2013-04-18 02:52:00,70.0,60.0,-100.00,SSW,196,5.0,15.0,70,0.00,,,0.00,0.000000,,2013-04-18 07:52:00,
2013-04-18 03:02:00,70.0,60.0,-100.00,SSW,196,5.0,15.0,70,0.00,,,0.00,0.000000,,2013-04-18 08:02:00,
2013-04-18 03:32:00,69.0,61.0,-100.00,South,170,4.0,11.0,75,0.00,,,0.00,0.000000,,2013-04-18 08:32:00,
2013-04-18 03:42:00,69.0,61.0,-100.00,South,170,4.0,11.0,75,0.00,,,0.00,0.000000,,2013-04-18 08:42:00,
2013-04-18 03:52:00,69.0,61.0,-100.00,South,170,4.0,11.0,75,0.00,,,0.00,0.000000,,2013-04-18 08:52:00,
2013-04-18 04:02:00,69.0,61.0,-100.00,South,170,4.0,11.0,75,0.00,,,0.00,0.000000,,2013-04-18 09:02:00,
2013-04-18 04:33:00,69.0,62.0,-100.00,South,184,4.0,10.0,78,0.00,,,0.00,0.000000,,2013-04-18 09:33:00,
2013-04-18 04:43:00,69.0,62.0,-100.00,South,184,4.0,10.0,78,0.00,,,0.00,0.000000,,2013-04-18 09:43:00,
2013-04-18 04:53:00,69.0,62.0,-100.00,South,184,4.0,10.0,78,0.00,,,0.00,0.000000,,2013-04-18 09:53:00,
2013-04-18 05:03:00,69.0,62.0,-100.00,South,184,4.0,10.0,78,0.00,,,0.00,0.000000,,2013-04-18 10:03:00,
2013-04-18 05:33:00,68.0,61.0,-100.00,South,180,6.0,14.0,79,0.00,,,0.00,0.000000,,2013-04-18 10:33:00,
2013-04-18 05:42:00,68.0,61.0,-100.00,South,180,6.0,14.0,79,0.00,,,0.00,0.000000,,2013-04-18 10:42:00,
2013-04-18 05:52:00,68.0,61.0,-100.00,South,180,6.0,14.0,79,0.00,,,0.00,0.000000,,2013-04-18 10:52:00,
2013-04-18 06:02:00,68.0,61.0,-100.00,South,180,6.0,14.0,79,0.00,,,0.00,0.000000,,2013-04-18 11:02:00,
2013-04-18 06:32:00,68.0,62.0,-100.00,South,178,6.0,15.0,81,0.00,,,0.00,0.000000,,2013-04-18 11:32:00,
2013-04-18 06:42:00,68.0,62.0,-100.00,South,178,6.0,15.0,81,0.00,,,0.00,0.000000,,2013-04-18 11:42:00,
2013-04-18 06:52:00,68.0,62.0,-100.00,South,178,6.0,15.0,81,0.00,,,0.00,0.000000,,2013-04-18 11:52:00,
2013-04-18 07:02:00,68.0,62.0,-100.00,South,178,6.0,15.0,81,0.00,,,0.00,0.000000,,2013-04-18 12:02:00,
2013-04-18 07:32:00,67.0,62.0,-100.00,SSE,158,4.0,12.0,84,0.00,,,0.00,24.000000,,2013-04-18 12:32:00,
2013-04-18 07:42:00,67.0,62.0,-100.00,SSE,158,4.0,12.0,84,0.00,,,0.00,24.000000,,2013-04-18 12:42:00,
2013-04-18 07:52:00,67.0,62.0,-100.00,SSE,158,4.0,12.0,84,0.00,,,0.00,24.000000,,2013-04-18 12:52:00,
2013-04-18 08:02:00,67.0,62.0,-100.00,SSE,158,4.0,12.0,84,0.00,,,0.00,24.000000,,2013-04-18 13:02:00,
2013-04-18 08:33:00,70.0,63.0,-100.00,South,184,6.0,14.0,78,0.00,,,0.00,97.000000,,2013-04-18 13:33:00,
2013-04-18 08:43:00,70.0,63.0,-100.00,South,184,6.0,14.0,78,0.00,,,0.00,97.000000,,2013-04-18 13:43:00,
2013-04-18 08:53:00,70.0,63.0,-100.00,South,184,6.0,14.0,78,0.00,,,0.00,97.000000,,2013-04-18 13:53:00,
2013-04-18 09:02:00,70.0,63.0,-100.00,South,184,6.0,14.0,78,0.00,,,0.00,97.000000,,2013-04-18 14:02:00,
2013-04-18 09:33:00,73.0,62.0,-100.00,SSW,202,9.0,22.0,69,0.00,,,0.00,276.000000,,2013-04-18 14:33:00,
2013-04-18 09:43:00,73.0,62.0,-100.00,SSW,202,9.0,22.0,69,0.00,,,0.00,276.000000,,2013-04-18 14:43:00,
2013-04-18 09:52:00,73.0,62.0,-100.00,SSW,202,9.0,22.0,69,0.00,,,0.00,276.000000,,2013-04-18 14:52:00,
2013-04-18 10:02:00,73.0,62.0,-100.00,SSW,202,9.0,22.0,69,0.00,,,0.00,276.000000,,2013-04-18 15:02:00,
2013-04-18 10:33:00,76.0,58.0,-100.00,South,190,10.0,27.0,54,0.00,,,0.00,500.000000,,2013-04-18 15:33:00,
2013-04-18 10:43:00,76.0,58.0,-100.00,South,190,10.0,27.0,54,0.00,,,0.00,500.000000,,2013-04-18 15:43:00,
2013-04-18 10:53:00,76.0,58.0,-100.00,South,190,10.0,27.0,54,0.00,,,0.00,500.000000,,2013-04-18 15:53:00,
2013-04-18 11:03:00,76.0,58.0,-100.00,South,190,10.0,27.0,54,0.00,,,0.00,500.000000,,2013-04-18 16:03:00,
2013-04-18 11:33:00,79.0,58.0,-100.00,SSW,203,8.0,27.0,49,0.00,,,0.00,673.000000,,2013-04-18 16:33:00,
2013-04-18 11:43:00,79.0,58.0,-100.00,SSW,203,8.0,27.0,49,0.00,,,0.00,673.000000,,2013-04-18 16:43:00,
2013-04-18 11:53:00,79.0,58.0,-100.00,SSW,203,8.0,27.0,49,0.00,,,0.00,673.000000,,2013-04-18 16:53:00,
2013-04-18 12:03:00,79.0,58.0,-100.00,SSW,203,8.0,27.0,49,0.00,,,0.00,673.000000,,2013-04-18 17:03:00,
2013-04-18 12:33:00,81.0,57.0,-100.00,SSW,196,7.0,20.0,44,0.00,,,0.00,703.000000,,2013-04-18 17:33:00,
2013-04-18 12:43:00,81.0,57.0,-100.00,SSW,196,7.0,20.0,44,0.00,,,0.00,703.000000,,2013-04-18 17:43:00,
2013-04-18 12:52:00,81.0,57.0,-100.00,SSW,196,7.0,20.0,44,0.00,,,0.00,703.000000,,2013-04-18 17:52:00,
2013-04-18 13:02:00,81.0,57.0,-100.00,SSW,196,7.0,20.0,44,0.00,,,0.00,703.000000,,2013-04-18 18:02:00,
2013-04-18 13:33:00,82.0,56.0,-100.00,SW,215,9.0,20.0,41,0.00,,,0.00,832.000000,,2013-04-18 18:33:00,
2013-04-18 13:43:00,82.0,56.0,-100.00,SW,215,9.0,20.0,41,0.00,,,0.00,832.000000,,2013-04-18 18:43:00,
2013-04-18 13:52:00,82.0,56.0,-100.00,SW,215,9.0,20.0,41,0.00,,,0.00,832.000000,,2013-04-18 18:52:00,
2013-04-18 14:02:00,82.0,56.0,-100.00,SW,215,9.0,20.0,41,0.00,,,0.00,832.000000,,2013-04-18 19:02:00,
2013-04-18 14:33:00,83.0,55.0,-100.00,SSW,202,9.0,21.0,39,0.00,,,0.00,655.000000,,2013-04-18 19:33:00,
2013-04-18 14:42:00,83.0,55.0,-100.00,SSW,202,9.0,21.0,39,0.00,,,0.00,655.000000,,2013-04-18 19:42:00,
2013-04-18 14:53:00,83.0,55.0,-100.00,SSW,202,9.0,21.0,39,0.00,,,0.00,655.000000,,2013-04-18 19:53:00,
2013-04-18 15:02:00,83.0,55.0,-100.00,SSW,202,9.0,21.0,39,0.00,,,0.00,655.000000,,2013-04-18 20:02:00,
2013-04-18 15:32:00,84.0,53.0,-100.00,South,189,9.0,21.0,34,0.00,,,0.00,740.000000,,2013-04-18 20:32:00,
2013-04-18 15:42:00,84.0,53.0,-100.00,South,189,9.0,21.0,34,0.00,,,0.00,740.000000,,2013-04-18 20:42:00,
2013-04-18 15:52:00,84.0,53.0,-100.00,South,189,9.0,21.0,34,0.00,,,0.00,740.000000,,2013-04-18 20:52:00,
2013-04-18 16:02:00,84.0,53.0,-100.00,South,189,9.0,21.0,34,0.00,,,0.00,740.000000,,2013-04-18 21:02:00,
2013-04-18 17:33:00,81.0,54.0,-100.00,South,189,7.0,19.0,40,-99.99,,,0.00,278.000000,,2013-04-18 22:33:00,
2013-04-18 17:42:00,81.0,54.0,-100.00,South,189,7.0,19.0,40,-99.99,,,0.00,278.000000,,2013-04-18 22:42:00,
2013-04-18 17:52:00,81.0,54.0,-100.00,South,189,7.0,19.0,40,-99.99,,,0.00,278.000000,,2013-04-18 22:52:00,
2013-04-18 18:04:00,81.0,54.0,-100.00,South,189,7.0,19.0,40,-99.99,,,0.00,278.000000,,2013-04-18 23:04:00,
2013-04-18 18:32:00,78.0,54.0,-100.00,South,181,5.0,16.0,43,0.00,,,0.00,132.000000,,2013-04-18 23:32:00,
2013-04-18 18:42:00,78.0,54.0,-100.00,South,181,5.0,16.0,43,0.00,,,0.00,132.000000,,2013-04-18 23:42:00,
2013-04-18 18:52:00,78.0,54.0,-100.00,South,181,5.0,16.0,43,0.00,,,0.00,132.000000,,2013-04-18 23:52:00,
2013-04-18 19:01:00,78.0,54.0,-100.00,South,181,5.0,16.0,43,0.00,,,0.00,132.000000,,2013-04-19 00:01:00,
2013-04-18 19:32:00,76.0,53.0,-100.00,South,189,8.0,20.0,45,0.00,,,0.00,39.000000,,2013-04-19 00:32:00,
2013-04-18 19:42:00,76.0,53.0,-100.00,South,189,8.0,20.0,45,0.00,,,0.00,39.000000,,2013-04-19 00:42:00,
2013-04-18 19:52:00,76.0,53.0,-100.00,South,189,8.0,20.0,45,0.00,,,0.00,39.000000,,2013-04-19 00:52:00,
2013-04-18 20:01:00,76.0,53.0,-100.00,South,189,8.0,20.0,45,0.00,,,0.00,39.000000,,2013-04-19 01:01:00,
2013-04-18 20:32:00,76.0,55.0,-100.00,South,181,9.0,18.0,48,0.00,,,0.00,1.000000,,2013-04-19 01:32:00,
2013-04-18 20:42:00,76.0,55.0,-100.00,South,181,9.0,18.0,48,0.00,,,0.00,1.000000,,2013-04-19 01:42:00,
2013-04-18 20:52:00,76.0,55.0,-100.00,South,181,9.0,18.0,48,0.00,,,0.00,1.000000,,2013-04-19 01:52:00,
2013-04-18 21:02:00,76.0,55.0,-100.00,South,181,9.0,18.0,48,0.00,,,0.00,1.000000,,2013-04-19 02:02:00,
2013-04-18 21:32:00,74.0,54.0,-100.00,South,170,6.0,20.0,50,0.00,,,0.00,0.000000,,2013-04-19 02:32:00,
2013-04-18 21:42:00,74.0,54.0,-100.00,South,170,6.0,20.0,50,0.00,,,0.00,0.000000,,2013-04-19 02:42:00,
2013-04-18 21:52:00,74.0,54.0,-100.00,South,170,6.0,20.0,50,0.00,,,0.00,0.000000,,2013-04-19 02:52:00,
2013-04-18 22:01:00,74.0,54.0,-100.00,South,170,6.0,20.0,50,0.00,,,0.00,0.000000,,2013-04-19 03:01:00,
2013-04-18 22:33:00,74.0,55.0,-100.00,South,170,7.0,16.0,52,0.00,,,0.00,0.000000,,2013-04-19 03:33:00,
2013-04-18 22:43:00,74.0,55.0,-100.00,South,170,7.0,16.0,52,0.00,,,0.00,0.000000,,2013-04-19 03:43:00,
2013-04-18 22:53:00,74.0,55.0,-100.00,South,170,7.0,16.0,52,0.00,,,0.00,0.000000,,2013-04-19 03:53:00,
2013-04-18 23:03:00,74.0,55.0,-100.00,South,170,7.0,16.0,52,0.00,,,0.00,0.000000,,2013-04-19 04:03:00,
2013-04-18 23:33:00,74.0,56.0,-100.00,South,172,7.0,16.0,54,0.00,,,0.00,0.000000,,2013-04-19 04:33:00,
2013-04-18 23:43:00,74.0,56.0,-100.00,South,172,7.0,16.0,54,0.00,,,0.00,0.000000,,2013-04-19 04:43:00,
2013-04-18 23:52:00,74.0,56.0,-100.00,South,172,7.0,16.0,54,0.00,,,0.00,0.000000,,2013-04-19 04:52:00,